[[{"header":{"parameterUnit":"m.s-1","parameterCategory":1,"la1":30.2991,"la2":30.254,"lo1":-89.0895,"lo2":-89.0444,"dy":0.0017,"dx":0.0017,"nx":28,"ny":28,"refTime":"2025-04-09T09:00:00:Z","depth":0,"parameterNumber":2,"parameterNumberName":"U-component_of_WINDS"},"data":[0,0,0,0,0,0,0,0,0,0,0,0,0,0,0,0,0,0,0,0,0,0,0,0,0,0,0,0,0,0,0,0,0,0,0,0,0,0,0,0,0,0,0,0,0,0,0,0,0,0,0,0,0,0,0,0,0,0,2.6839,2.684,0,2.693,2.6931,2.6932,2.6885,2.6883,2.688,2.6878,2.697,2.6975,2.698,0,0,0,0,0,0,0,0,0,0,0,0,0,2.6625,2.6629,2.6839,2.684,2.6841,2.693,2.6931,2.6932,2.6886,2.6883,2.688,2.6877,2.6969,2.6974,2.698,0,0,0,0,0,0,0,0,0,0,0,0,0,2.6717,2.663,2.6839,2.6829,2.6829,2.693,2.6931,2.6933,2.6886,2.6883,2.6879,2.6876,2.6967,2.6974,2.6981,2.7097,0,0,2.7002,2.7005,0,0,0,0,0,0,0,0,2.6712,2.6725,2.6829,2.683,2.683,2.6893,2.6889,2.6988,2.6887,2.6864,2.6878,2.6874,2.6947,2.6956,2.6981,2.7101,2.7105,2.7003,2.7007,2.701,2.7012,0,0,0,0,0,0,0,2.6705,2.6721,2.6875,2.6831,2.6831,2.682,2.6829,2.6908,2.6925,2.6866,2.6863,2.6874,2.6947,2.6974,2.6983,2.7106,2.7003,2.7009,2.7013,2.7016,2.7327,2.733,0,0,0,0,0,0,2.67,2.6716,2.6872,2.6878,2.6761,2.6826,2.6836,2.6876,2.6924,2.6928,2.6877,2.6872,2.6964,2.6974,2.6986,2.7125,2.701,2.7017,2.7021,2.7323,2.7327,2.7332,0,0,0,0,0,0,2.6695,2.6714,2.6868,2.6796,2.6815,2.6834,2.6879,2.688,2.6907,2.6933,2.6935,2.6902,2.6961,2.6976,2.707,2.7127,2.702,2.7027,2.7318,2.7324,2.733,2.7403,0,0,0,0,0,0,2.6689,2.6713,2.6757,2.6797,2.6819,2.6951,2.6882,2.6884,2.6919,2.6913,2.6956,2.696,2.696,2.7059,2.7077,2.7135,2.7032,2.7313,2.7321,2.7328,2.7396,2.7411,2.7424,0,0,0,0,0,2.6682,2.6774,2.6759,2.6779,2.6875,2.6955,2.6967,2.6965,2.6924,2.6969,2.6985,2.6959,2.7118,2.7069,2.7088,2.715,2.7309,2.7318,2.7327,2.7389,2.7408,2.7424,0,0,0,0,0,0,2.6739,2.6779,2.6763,2.6871,2.691,2.6946,2.7003,2.6984,2.7035,2.7027,2.7022,2.7032,2.713,2.7149,2.7094,2.7264,2.7207,2.7221,2.7248,2.7266,2.728,2.7273,2.7038,0,0,0,0,0,2.6765,2.6827,2.6858,2.695,2.697,2.6983,2.7018,2.7013,2.7053,2.7069,2.7092,2.7132,2.7191,2.7229,2.7285,2.7399,2.7407,2.745,2.7464,2.7476,2.7487,2.7549,2.7568,2.7361,2.7361,2.7361,0,0,2.6817,2.6847,2.6886,2.6962,2.6992,2.7056,2.6997,2.7067,2.7115,2.7079,2.7169,2.7188,2.7232,2.7336,2.7383,2.7355,2.7546,2.7487,2.7496,2.7501,2.756,2.7579,2.7597,2.7368,2.7366,2.7366,0,0,2.6946,2.6975,2.7055,2.7086,2.7131,2.7139,2.7159,2.7198,2.721,2.73,2.7275,2.7331,2.7433,2.7465,2.7495,2.7637,2.7614,2.7655,2.7729,2.7789,2.7805,2.7819,2.787,2.7888,2.7667,2.7667,2.7667,0,2.7006,2.7102,2.7098,2.7171,2.7205,2.7176,2.7257,2.7287,2.7349,2.7373,2.7341,2.7468,2.7496,2.7607,2.7642,2.7667,2.7689,2.765,2.7803,2.7818,2.7831,2.7879,2.7898,2.7671,2.7671,2.767,2.767,0,2.7173,2.724,2.7299,2.7359,2.74,2.7476,2.7484,2.7527,2.7518,2.753,2.7623,2.7655,2.7716,2.7743,2.7735,2.7853,2.7835,2.7803,2.7746,2.7855,2.79,2.7919,2.7678,2.7676,2.7675,2.7674,0,0,2.7339,2.7397,2.7419,2.7446,2.7495,2.7546,2.7622,2.7682,2.7718,2.7762,2.7825,2.7912,2.7883,2.7917,2.7913,2.7966,2.8076,2.7928,2.7929,2.7954,2.8208,2.8231,2.8252,2.8062,2.8065,2.8068,2.8204,0,2.7471,2.7603,2.7602,2.7724,2.7786,2.776,2.7825,2.7862,2.7876,2.793,2.7944,2.8006,2.7964,2.7984,2.8035,2.8052,2.8127,2.8042,2.812,2.8123,2.8109,2.8276,2.83,2.8427,2.8222,2.8225,2.8227,0,2.7642,2.7692,2.782,2.786,2.7886,2.7944,2.8,2.8053,2.8094,2.81,2.8138,2.8126,2.8203,2.8144,2.8249,2.8191,2.8223,2.8236,2.8241,2.8247,2.8181,2.8286,2.8467,2.8486,2.8255,2.8253,2.8251,0,2.7751,2.785,2.7939,2.7963,2.8012,2.8054,2.8076,2.8114,2.815,2.8199,2.8223,2.828,2.8311,2.8356,2.836,2.8316,2.8466,2.8407,2.8472,2.8472,2.8504,2.8502,2.8692,2.8526,2.8526,2.8525,2.8525,0,2.7898,2.7977,2.7988,2.8043,2.8131,2.813,2.8217,2.8235,2.827,2.8327,2.8309,2.8364,2.8366,2.8422,2.8425,2.8512,2.8526,2.8533,2.8532,2.8534,2.8533,2.8554,2.8545,2.853,2.8529,2.8528,2.8527,0,2.8033,2.8044,2.814,2.8178,2.819,2.8253,2.8286,2.8338,2.835,2.8424,2.8441,2.8459,2.8524,2.8533,2.8609,2.8611,2.8715,2.8706,2.8701,2.8699,2.8764,2.8757,2.8974,2.9002,2.8818,2.882,2.8821,0,2.8126,2.8186,2.8232,2.8269,2.8294,2.8355,2.8392,2.8394,2.8433,2.8485,2.8531,2.8595,2.8645,2.8751,2.877,2.8828,2.882,2.8892,2.8829,2.8828,2.8821,2.8817,2.8822,2.8904,2.8906,2.8908,2.8909,0,2.8289,2.8292,2.8347,2.8404,2.8449,2.8494,2.8536,2.8568,2.8575,2.8621,2.8687,2.8727,2.8804,2.8867,2.8925,2.8947,2.893,2.8929,2.8947,2.8949,2.8943,2.8946,2.8733,2.8924,2.8922,2.8921,2.892,2.892,2.8406,2.8458,2.8499,2.856,2.8592,2.8633,2.8684,2.8702,2.8758,2.8821,2.8819,2.8892,2.8932,2.9007,2.9034,2.9091,2.9067,2.9094,2.91,2.9107,2.9113,2.8935,2.9102,2.9101,2.9101,2.91,2.91,0,2.8568,2.8593,2.865,2.8709,2.8758,2.8738,2.8784,2.8826,2.889,2.8929,2.898,2.9056,2.9117,2.9142,2.9202,2.9243,2.9236,2.9259,2.9255,2.9261,2.9131,2.9109,2.9263,2.9263,2.9263,2.9263,2.9263,2.9263,2.8658,2.8745,2.8753,2.8856,2.888,2.8952,2.898,2.9017,2.9048,2.9134,2.9185,2.9201,2.9235,2.9297,2.9352,2.9358,2.938,2.9406,2.9409,2.9286,2.927,2.9254,2.9233,2.9412,2.9412,2.9534,2.9535,2.9536]},{"header":{"parameterUnit":"m.s-1","parameterCategory":1,"la1":30.2991,"la2":30.254,"lo1":-89.0895,"lo2":-89.0444,"dy":0.0017,"dx":0.0017,"nx":28,"ny":28,"refTime":"2025-04-09T09:00:00:Z","depth":0,"parameterNumber":3,"parameterNumberName":"V-component_of_WINDS"},"data":[0,0,0,0,0,0,0,0,0,0,0,0,0,0,0,0,0,0,0,0,0,0,0,0,0,0,0,0,0,0,0,0,0,0,0,0,0,0,0,0,0,0,0,0,0,0,0,0,0,0,0,0,0,0,0,0,0,0,-2.6667,-2.6668,0,-2.6765,-2.6766,-2.6767,-2.6744,-2.6742,-2.674,-2.6738,-2.6834,-2.6838,-2.6842,0,0,0,0,0,0,0,0,0,0,0,0,0,-2.6456,-2.646,-2.6667,-2.6668,-2.6669,-2.6764,-2.6766,-2.6767,-2.6744,-2.6742,-2.674,-2.6737,-2.6832,-2.6837,-2.6843,0,0,0,0,0,0,0,0,0,0,0,0,0,-2.655,-2.6461,-2.6666,-2.6669,-2.667,-2.6764,-2.6766,-2.6767,-2.6745,-2.6742,-2.6739,-2.6736,-2.6831,-2.6837,-2.6843,-2.6939,0,0,-2.6863,-2.6866,0,0,0,0,0,0,0,0,-2.6544,-2.6557,-2.6668,-2.6669,-2.6671,-2.6739,-2.6726,-2.6825,-2.6745,-2.6716,-2.6738,-2.6735,-2.6804,-2.6813,-2.6837,-2.6943,-2.6947,-2.6864,-2.6867,-2.687,-2.6872,0,0,0,0,0,0,0,-2.6538,-2.6553,-2.6705,-2.6669,-2.6671,-2.6664,-2.6674,-2.6745,-2.6775,-2.6719,-2.6717,-2.6729,-2.6805,-2.6831,-2.6839,-2.6949,-2.6863,-2.6869,-2.6873,-2.6876,-2.7137,-2.714,0,0,0,0,0,0,-2.6531,-2.6548,-2.6702,-2.6708,-2.66,-2.667,-2.6682,-2.672,-2.6774,-2.6779,-2.6732,-2.6728,-2.6821,-2.6832,-2.6842,-2.6957,-2.687,-2.6876,-2.688,-2.7134,-2.7138,-2.7142,0,0,0,0,0,0,-2.6526,-2.6545,-2.6698,-2.6628,-2.6647,-2.6677,-2.672,-2.6723,-2.675,-2.6784,-2.6788,-2.6753,-2.682,-2.6833,-2.6915,-2.696,-2.6879,-2.6885,-2.7131,-2.7136,-2.714,-2.7188,0,0,0,0,0,0,-2.652,-2.6543,-2.6581,-2.6629,-2.6651,-2.6771,-2.6723,-2.6727,-2.6761,-2.6757,-2.6805,-2.6811,-2.6818,-2.6906,-2.6922,-2.6968,-2.689,-2.7127,-2.7133,-2.7138,-2.7183,-2.7194,-2.7204,0,0,0,0,0,-2.6513,-2.659,-2.6583,-2.6602,-2.6698,-2.6774,-2.6786,-2.6795,-2.6765,-2.6802,-2.6824,-2.6809,-2.6953,-2.6914,-2.6932,-2.6981,-2.7124,-2.7131,-2.7138,-2.7178,-2.7192,-2.7204,0,0,0,0,0,0,-2.6544,-2.6596,-2.6589,-2.6684,-2.6725,-2.677,-2.6817,-2.6809,-2.6858,-2.6852,-2.6859,-2.687,-2.6954,-2.6975,-2.6931,-2.7076,-2.7034,-2.7045,-2.7059,-2.7072,-2.7082,-2.7075,-2.6895,0,0,0,0,0,-2.6563,-2.6621,-2.6662,-2.6742,-2.6763,-2.6787,-2.682,-2.6823,-2.6865,-2.6881,-2.6909,-2.6949,-2.7003,-2.7039,-2.7091,-2.7186,-2.7195,-2.7228,-2.7238,-2.7247,-2.7256,-2.7307,-2.7322,-2.7164,-2.7164,-2.7164,0,0,-2.6601,-2.6636,-2.6672,-2.6749,-2.6781,-2.684,-2.6801,-2.6865,-2.6908,-2.6891,-2.697,-2.6992,-2.7037,-2.7126,-2.7166,-2.7146,-2.7302,-2.7256,-2.7262,-2.7267,-2.7316,-2.7331,-2.7344,-2.7169,-2.7168,-2.7168,0,0,-2.67,-2.6733,-2.6803,-2.6836,-2.6886,-2.6901,-2.6918,-2.6964,-2.6978,-2.7059,-2.7047,-2.7097,-2.7191,-2.7223,-2.7252,-2.7364,-2.7351,-2.738,-2.7435,-2.7485,-2.7497,-2.7508,-2.7547,-2.7561,-2.7389,-2.7389,-2.7389,0,-2.674,-2.683,-2.6839,-2.6905,-2.6939,-2.6927,-2.6997,-2.7029,-2.7092,-2.7115,-2.7092,-2.7209,-2.7238,-2.7335,-2.7362,-2.7386,-2.7404,-2.7375,-2.7495,-2.7506,-2.7516,-2.7554,-2.7569,-2.7393,-2.7392,-2.7392,-2.7392,0,-2.6877,-2.6939,-2.6989,-2.7053,-2.7092,-2.7159,-2.7178,-2.7216,-2.7216,-2.7234,-2.7315,-2.735,-2.7408,-2.7432,-2.7432,-2.7528,-2.7514,-2.7493,-2.7451,-2.7534,-2.757,-2.7584,-2.7397,-2.7396,-2.7395,-2.7394,0,0,-2.6998,-2.7067,-2.7085,-2.7113,-2.7167,-2.7215,-2.7281,-2.734,-2.7372,-2.7416,-2.7471,-2.7551,-2.7532,-2.7565,-2.7568,-2.7612,-2.7698,-2.7586,-2.7587,-2.7605,-2.7805,-2.782,-2.7837,-2.769,-2.7693,-2.7695,-2.7801,0,-2.7102,-2.7221,-2.7231,-2.7337,-2.7394,-2.7384,-2.7442,-2.748,-2.7498,-2.7548,-2.7567,-2.7623,-2.7594,-2.7614,-2.7657,-2.7678,-2.7738,-2.7671,-2.774,-2.7742,-2.7729,-2.7856,-2.7872,-2.7971,-2.7815,-2.7818,-2.7819,0,-2.7238,-2.7288,-2.74,-2.7447,-2.7471,-2.7523,-2.7577,-2.7626,-2.7669,-2.7678,-2.7715,-2.7713,-2.7779,-2.7736,-2.7827,-2.7781,-2.781,-2.7825,-2.7829,-2.7835,-2.7786,-2.7865,-2.8002,-2.8017,-2.7841,-2.7839,-2.7838,0,-2.7315,-2.741,-2.749,-2.7514,-2.757,-2.7607,-2.7631,-2.7672,-2.7707,-2.7754,-2.7776,-2.783,-2.7859,-2.79,-2.7912,-2.7879,-2.8003,-2.796,-2.8012,-2.8011,-2.8038,-2.8036,-2.8181,-2.8057,-2.8057,-2.8057,-2.8056,0,-2.743,-2.7498,-2.7525,-2.7574,-2.765,-2.7661,-2.7736,-2.7758,-2.7795,-2.7846,-2.784,-2.7889,-2.7902,-2.7952,-2.7961,-2.8035,-2.8048,-2.8057,-2.8058,-2.8058,-2.8056,-2.8076,-2.8069,-2.806,-2.806,-2.8059,-2.8058,0,-2.7528,-2.7549,-2.7635,-2.7681,-2.7694,-2.7749,-2.7787,-2.7834,-2.7851,-2.7916,-2.7932,-2.7959,-2.8018,-2.8034,-2.8104,-2.811,-2.8197,-2.8192,-2.8183,-2.8183,-2.8233,-2.8228,-2.8396,-2.8418,-2.828,-2.8281,-2.8282,0,-2.76,-2.7653,-2.7705,-2.7741,-2.7767,-2.7824,-2.786,-2.7872,-2.7909,-2.7963,-2.8002,-2.8061,-2.8108,-2.8202,-2.8227,-2.828,-2.8276,-2.8332,-2.8284,-2.8281,-2.8277,-2.8273,-2.8278,-2.834,-2.8342,-2.8343,-2.8344,0,-2.7724,-2.7732,-2.7785,-2.7842,-2.7885,-2.793,-2.7972,-2.8001,-2.8019,-2.8061,-2.8122,-2.8159,-2.8232,-2.829,-2.8344,-2.8367,-2.8358,-2.8359,-2.8374,-2.8373,-2.8365,-2.837,-2.8207,-2.8355,-2.8354,-2.8353,-2.8352,-2.8352,-2.7811,-2.7858,-2.7903,-2.7961,-2.7995,-2.8036,-2.8081,-2.8105,-2.8157,-2.8218,-2.8222,-2.8288,-2.8329,-2.8401,-2.8427,-2.8478,-2.8461,-2.8483,-2.8488,-2.8493,-2.8497,-2.8358,-2.8488,-2.8487,-2.8487,-2.8487,-2.8487,0,-2.7935,-2.7964,-2.8018,-2.8079,-2.8125,-2.8115,-2.8161,-2.82,-2.8259,-2.8299,-2.8346,-2.8416,-2.8472,-2.8501,-2.8557,-2.8592,-2.8589,-2.8606,-2.8603,-2.8609,-2.8509,-2.8491,-2.8607,-2.8607,-2.8607,-2.8607,-2.8607,-2.8607,-2.8005,-2.8084,-2.8097,-2.8192,-2.8219,-2.8285,-2.8313,-2.8349,-2.8381,-2.846,-2.8508,-2.8527,-2.8562,-2.862,-2.867,-2.8677,-2.8698,-2.8716,-2.8721,-2.8628,-2.8615,-2.8604,-2.8587,-2.8721,-2.8721,-2.8816,-2.8817,-2.8818]}]]